{"data":{"norad_id":63650,"epoch":"2026-09-19T22:16:57.805248Z","epoch_age_seconds":201998,"freshness":"STALE","line1":"1 63650U 25083S   26262.92844682  .00010215  00000+0  38016-3 0  9998","line2":"2 63650  43.0017 348.2074 0001972 275.3956  84.6670 15.27584566 79771","mean_motion":15.27584566,"eccentricity":0.0001972,"inclination_deg":43.0017,"raan_deg":348.2074,"arg_perigee_deg":275.3956,"mean_anomaly_deg":84.667,"bstar":0.00038016,"rev_number":7977,"period_min":94.266466947271,"perigee_km":481.68240062512,"apogee_km":484.38844702908,"semimajor_km":6861.1724238271,"source":"CELESTRAK","updated_at":"2026-09-21T09:00:35.054104Z"}}